Volver al catálogo

STARLINK-3646

ActivoComunicacionesVLEO
NORAD 51785·PAYLOAD·🇺🇸 United States

Lanzado Feb 25, 2022 desde Vandenberg Space Force Base

Loading…

Próximos Pases (próximas 24 horas)

TLE

ActualizadoSource: CelesTrak SupGP

Época: Sep 15, 2026, 01:57 UTC

1 51785C 22017T   26258.08173611 -.00020232  00000+0 -65071-3 0  2588
2 51785  53.1570 194.6377 0001352  86.4122  40.2662 15.31707128    16

Sigue STARLINK-3646 en tiempo real con AllMySat

Download on the App Store